This is the latest recevied weather packets stored in our database for station/object N5LSN. If no packets are shown the sender has not sent any weather packets the latest 10 day(s).
| Time | Temp. | Humidity | Pressure | Rain* | Wind** | Luminosity | Snow |
|---|---|---|---|---|---|---|---|
| 1777480923 | 18.33° C | 82% | 1016.8 hPa | 0 mm | - | 524 W/m² | - |
| 1777480619 | 18.33° C | 82% | 1017 hPa | 0 mm | - | 489 W/m² | - |
| 1777480316 | 17.78° C | 82% | 1016.8 hPa | 0 mm | - | 438 W/m² | - |
| 1777480011 | 18.33° C | 85% | 1017 hPa | 0 mm | - | 674 W/m² | - |
| 1777479709 | 17.78° C | 84% | 1017.3 hPa | 0 mm | - | 444 W/m² | - |
| 1777479407 | 17.78° C | 83% | 1017.2 hPa | 0 mm | - | 405 W/m² | - |
| 1777479102 | 17.78° C | 84% | 1017.3 hPa | 0 mm | - | 353 W/m² | - |
| 1777478799 | 18.33° C | 83% | 1017.3 hPa | 0 mm | - | 375 W/m² | - |
| 1777478496 | 17.78° C | 83% | 1017.3 hPa | 0 mm | - | 424 W/m² | - |
| 1777478193 | 17.78° C | 85% | 1017.4 hPa | 0 mm | - | 391 W/m² | - |
| 1777477889 | 17.22° C | 84% | 1017.4 hPa | 0 mm | - | 471 W/m² | - |
| 1777477585 | 17.22° C | 85% | 1017.3 hPa | 0 mm | - | 399 W/m² | - |
| 1777477281 | 17.78° C | 85% | 1017.4 hPa | 0 mm | - | 303 W/m² | - |
| 1777476978 | 17.22° C | 86% | 1017.6 hPa | 0 mm | - | 404 W/m² | - |
| 1777476676 | 17.22° C | 88% | 1017.4 hPa | 0 mm | - | 400 W/m² | - |
| 1777476372 | 16.67° C | 88% | 1017.5 hPa | 0 mm | - | 345 W/m² | - |
| 1777476069 | 16.67° C | 87% | 1017.5 hPa | 0 mm | - | 190 W/m² | - |
| 1777475764 | 16.67° C | 88% | 1017.7 hPa | 0 mm | - | 205 W/m² | - |
| 1777475461 | 17.22° C | 88% | 1017.7 hPa | 0 mm | - | 233 W/m² | - |
| 1777475156 | 17.22° C | 87% | 1017.7 hPa | 0 mm | - | 216 W/m² | - |
| 1777474853 | 17.22° C | 86% | 1017.9 hPa | 0 mm | - | 242 W/m² | - |
| 1777474548 | 17.22° C | 88% | 1017.6 hPa | 0 mm | - | 279 W/m² | - |
| 1777474245 | 17.22° C | 87% | 1017.4 hPa | 0 mm | - | 340 W/m² | - |
| 1777473942 | 17.22° C | 88% | 1017.3 hPa | 0 mm | - | 318 W/m² | - |
| 1777473640 | 17.22° C | 88% | 1017.4 hPa | 0 mm | - | 326 W/m² | - |
* Rain latest hour (hover to see other rain measurements)
** Current wind speed in m/s (hover to see current wind gust speed)